Marfa, TX

2:34 AM CDT on August 25, 2016 (GMT -0500)
Marfa Municipal

Weather History for KMRF - November, 2011

Change the Weather History Date:

Sunday, November 13, 2011

  Actual Average Record
Temperature  
Mean Temperature 56 °F -  
Max Temperature 71 °F 63 °F 75 °F (2007)
Min Temperature 42 °F 35 °F 19 °F (2014)
Degree Days  
Heating Degree Days 8    
Growing Degree Days 6 (Base 50)    
Moisture  
Dew Point 33 °F    
Average Humidity 41    
Maximum Humidity 58    
Minimum Humidity 27    
Precipitation  
Precipitation 0.00 in - - ()
Sea Level Pressure  
Sea Level Pressure 30.03 in    
Wind  
Wind Speed 10 mph (SW)    
Max Wind Speed 24 mph    
Max Gust Speed 29 mph    
Visibility 10 miles    
Events      
Averages and records for this station are not official NWS values.
T = Trace of Precipitation, MM = Missing Value Source: NWS Daily Summary

Daily Weather History Graph

Daily Weather History Graph

Search for Another Location

Airport or City:

Trip Planner

Search our weather history database for the weather conditions in past years. The results will help you decide how hot, cold, wet, or windy it might be!

Date:

Astronomy

Nov. 13, 2011 Rise Set
Actual Time 7:19 AM CST 6:00 PM CST
Civil Twilight 6:54 AM CST 6:25 PM CST
Nautical Twilight 6:25 AM CST 6:54 PM CST
Astronomical Twilight 5:57 AM CST 7:23 PM CST
Moon 8:18 PM CST (11/13) 9:47 AM CST (11/13)
Length of Visible Light 11h 31m
Length of Day
10h 40m
Waning Gibbous, 92% of the Moon is Illuminated
Nov 13
Waning Gibbous
Nov 18
Last Quarter
Nov 25
New
Dec 2
First Quarter
Dec 10
Full

Hourly Weather History & Observations

Time (CST) Temp. Windchill Dew Point Humidity Pressure Visibility Wind Dir Wind Speed Gust Speed Precip Events Conditions
12:35 AM 48.2 °F - 24.8 °F 40% 30.08 in 10.0 mi WNW 8.1 mph - N/A   Clear
12:55 AM 51.8 °F - 28.4 °F 41% 30.08 in 10.0 mi WNW 8.1 mph - N/A   Clear
1:15 AM 48.2 °F - 28.4 °F 46% 30.08 in 10.0 mi WNW 8.1 mph - N/A   Clear
1:35 AM 48.2 °F - 30.2 °F 50% 30.08 in 10.0 mi WNW 9.2 mph - N/A   Clear
2:15 AM 48.2 °F - 30.2 °F 50% 30.06 in 10.0 mi WNW 8.1 mph - N/A   Mostly Cloudy
2:35 AM 48.2 °F - 30.2 °F 50% 30.05 in 10.0 mi West 6.9 mph - N/A   Clear
2:55 AM 48.2 °F - 32.0 °F 54% 30.04 in 10.0 mi SW 6.9 mph - N/A   Clear
3:15 AM 48.2 °F - 30.2 °F 50% 30.04 in 10.0 mi South 9.2 mph - N/A   Clear
3:35 AM 48.2 °F - 30.2 °F 50% 30.04 in 10.0 mi SSE 5.8 mph - N/A   Partly Cloudy
3:55 AM 42.8 °F 39.3 °F 28.4 °F 57% 30.04 in 10.0 mi ESE 5.8 mph - N/A   Clear
4:15 AM 44.6 °F 41.4 °F 30.2 °F 57% 30.04 in 10.0 mi SSE 5.8 mph - N/A   Clear
4:35 AM 44.6 °F 40.7 °F 30.2 °F 57% 30.03 in 10.0 mi SSE 6.9 mph - N/A   Clear
4:55 AM 44.6 °F - 28.4 °F 53% 30.03 in 10.0 mi Calm Calm - N/A   Clear
5:15 AM 42.8 °F - 28.4 °F 57% 30.04 in 10.0 mi Calm Calm - N/A   Clear
5:35 AM 42.8 °F 40.1 °F 28.4 °F 57% 30.04 in 10.0 mi SW 4.6 mph - N/A   Clear
5:55 AM 46.4 °F 42.4 °F 30.2 °F 53% 30.04 in 10.0 mi WSW 8.1 mph - N/A   Clear
6:15 AM 46.4 °F 42.4 °F 32.0 °F 57% 30.04 in 10.0 mi West 8.1 mph - N/A   Clear
6:55 AM 46.4 °F 41.9 °F 30.2 °F 53% 30.03 in 10.0 mi West 9.2 mph - N/A   Clear
7:15 AM 44.6 °F 40.7 °F 30.2 °F 57% 30.04 in 10.0 mi West 6.9 mph - N/A   Clear
7:35 AM 46.4 °F 43.5 °F 32.0 °F 57% 30.04 in 10.0 mi West 5.8 mph - N/A   Clear
7:55 AM 48.2 °F - 33.8 °F 58% 30.04 in 10.0 mi West 5.8 mph - N/A   Clear
8:35 AM 55.4 °F - 35.6 °F 47% 30.04 in 10.0 mi WSW 10.4 mph - N/A   Clear
8:55 AM 57.2 °F - 35.6 °F 44% 30.05 in 10.0 mi SW 10.4 mph - N/A   Clear
9:15 AM 57.2 °F - 33.8 °F 41% 30.07 in 10.0 mi South 6.9 mph - N/A   Clear
9:35 AM 60.8 °F - 35.6 °F 39% 30.06 in 10.0 mi SSW 10.4 mph - N/A   Clear
9:55 AM 60.8 °F - 35.6 °F 39% 30.07 in 10.0 mi South 9.2 mph - N/A   Clear
10:15 AM 62.6 °F - 35.6 °F 37% 30.07 in 10.0 mi SW 11.5 mph 16.1 mph N/A   Clear
10:35 AM 66.2 °F - 35.6 °F 32% 30.08 in 10.0 mi SW 15.0 mph - N/A   Clear
10:55 AM 68.0 °F - 33.8 °F 28% 30.07 in 10.0 mi WSW 18.4 mph 26.5 mph N/A   Clear
11:15 AM 69.8 °F - 35.6 °F 28% 30.07 in 10.0 mi WSW 24.2 mph 27.6 mph N/A   Clear
11:35 AM 69.8 °F - 35.6 °F 28% 30.07 in 10.0 mi WSW 24.2 mph - N/A   Clear
11:55 AM 69.8 °F - 35.6 °F 28% 30.06 in 10.0 mi WSW 21.9 mph 28.8 mph N/A   Clear
12:15 PM 69.8 °F - 35.6 °F 28% 30.04 in 10.0 mi WSW 21.9 mph 27.6 mph N/A   Clear
12:35 PM 71.6 °F - 35.6 °F 27% 30.02 in 10.0 mi SW 18.4 mph 26.5 mph N/A   Clear
12:55 PM 69.8 °F - 35.6 °F 28% 30.01 in 10.0 mi SSW 19.6 mph 25.3 mph N/A   Clear
1:15 PM 71.6 °F - 35.6 °F 27% 30.01 in 10.0 mi SW 23.0 mph - N/A   Clear
1:35 PM 71.6 °F - 35.6 °F 27% 30.00 in 10.0 mi SW 23.0 mph 27.6 mph N/A   Clear
1:55 PM 69.8 °F - 35.6 °F 28% 30.01 in 10.0 mi West 21.9 mph 26.5 mph N/A   Clear
2:15 PM 68.0 °F - 35.6 °F 30% 30.00 in 10.0 mi West 18.4 mph 23.0 mph N/A   Clear
2:35 PM 69.8 °F - 35.6 °F 28% 29.99 in 10.0 mi WSW 16.1 mph 23.0 mph N/A   Clear
2:55 PM 69.8 °F - 35.6 °F 28% 29.99 in 10.0 mi WSW 18.4 mph 23.0 mph N/A   Clear
3:15 PM 69.8 °F - 35.6 °F 28% 29.99 in 10.0 mi WSW 18.4 mph 23.0 mph N/A   Clear
3:35 PM 68.0 °F - 35.6 °F 30% 29.98 in 10.0 mi SW 19.6 mph 24.2 mph N/A   Clear
3:55 PM 66.2 °F - 35.6 °F 32% 29.99 in 10.0 mi WSW 23.0 mph - N/A   Clear
4:15 PM 66.2 °F - 35.6 °F 32% 29.99 in 10.0 mi SW 20.7 mph - N/A   Clear
4:35 PM 66.2 °F - 35.6 °F 32% 29.99 in 10.0 mi SW 20.7 mph 27.6 mph N/A   Clear
4:55 PM 66.2 °F - 35.6 °F 32% 30.00 in 10.0 mi SW 23.0 mph 26.5 mph N/A   Clear
5:15 PM 64.4 °F - 35.6 °F 34% 30.00 in 10.0 mi SW 17.3 mph - N/A   Clear
5:35 PM 64.4 °F - 35.6 °F 34% 30.01 in 10.0 mi SW 13.8 mph - N/A   Clear
5:55 PM 62.6 °F - 35.6 °F 37% 30.00 in 10.0 mi SW 9.2 mph - N/A   Clear
6:15 PM 60.8 °F - 33.8 °F 36% 30.00 in 10.0 mi SW 8.1 mph - N/A   Clear
6:35 PM 59.0 °F - 33.8 °F 39% 30.00 in 10.0 mi SW 5.8 mph - N/A   Clear
6:55 PM 55.4 °F - 33.8 °F 44% 30.01 in 10.0 mi Calm Calm - N/A   Clear
7:15 PM 57.2 °F - 33.8 °F 41% 30.02 in 10.0 mi SW 5.8 mph - N/A   Clear
7:35 PM 55.4 °F - 33.8 °F 44% 30.01 in 10.0 mi SSW 6.9 mph - N/A   Clear
7:55 PM 55.4 °F - 33.8 °F 44% 30.02 in 10.0 mi South 5.8 mph - N/A   Clear
8:15 PM 55.4 °F - 33.8 °F 44% 30.03 in 10.0 mi South 3.5 mph - N/A   Clear
8:35 PM 55.4 °F - 32.0 °F 41% 30.03 in 10.0 mi Calm Calm - N/A   Clear
9:15 PM 53.6 °F - 32.0 °F 44% 30.03 in 10.0 mi WSW 3.5 mph - N/A   Clear
9:35 PM 53.6 °F - 32.0 °F 44% 30.03 in 10.0 mi WSW 5.8 mph - N/A   Clear
9:55 PM 53.6 °F - 32.0 °F 44% 30.02 in 10.0 mi WSW 4.6 mph - N/A   Clear
10:15 PM 51.8 °F - 30.2 °F 44% 30.03 in 10.0 mi ENE 6.9 mph - N/A   Clear
10:35 PM 51.8 °F - 30.2 °F 44% 30.03 in 10.0 mi East 5.8 mph - N/A   Clear
10:55 PM 50.0 °F - 30.2 °F 47% 30.03 in 10.0 mi East 6.9 mph - N/A   Clear
11:15 PM 51.8 °F - 32.0 °F 47% 30.04 in 10.0 mi East 3.5 mph - N/A   Clear
11:35 PM 50.0 °F - 30.2 °F 47% 30.03 in 10.0 mi North 3.5 mph - N/A   Clear
11:55 PM 48.2 °F - 28.4 °F 46% 30.03 in 10.0 mi ENE 8.1 mph - N/A   Clear